Location: ???? ?????????
(31.1304°N, 31.7111°E)
Time: 16:31:54
(UTC+00:00)

Vanguard 1 Rocket - Visible Passes

Search period start: 27 February 2021 00:00
Search period end: 09 March 2021 00:00
Orbit: 654 x 4222 km, 34.3° (Epoch: 26 February)

Date Brightness Start Highest point End Pass type
(mag) Time Alt. Az. Time Alt. Az. Time Alt. Az.
27 Feb 10.3 01:04:04 65° W 01:10:30 87° NNW 01:31:35 10° ENE visible
27 Feb 10.2 03:21:18 15° W 03:44:33 84° N 03:59:22 10° E visible
27 Feb 11.4 21:39:10 23° E 21:39:10 23° E 21:46:07 10° ENE visible
27 Feb 10.4 23:56:24 80° ESE 23:56:24 80° ESE 00:18:19 10° ENE visible
28 Feb 10.3 02:13:38 34° W 02:29:20 81° N 02:47:22 10° E visible
28 Feb11.420:31:28ENE20:31:28ENE19:50:39SSWvisible
28 Feb 10.8 22:48:42 49° E 22:48:42 49° E 23:04:15 10° ENE visible
01 Mar 10.4 01:05:56 61° W 01:13:21 84° N 01:34:41 10° E visible
01 Mar 10.2 03:23:09 13° WNW 03:47:32 88° NNE 04:02:34 10° ESE visible
01 Mar 11.4 21:40:58 26° E 21:40:58 26° E 21:49:11 10° ENE visible
01 Mar 10.3 23:58:11 86° E 23:58:11 86° E 00:21:18 10° ENE visible
02 Mar 10.4 02:15:25 32° W 02:32:21 82° N 02:50:35 10° E visible
02 Mar11.320:33:12ENE20:33:12ENE19:53:36SSWvisible
02 Mar 10.7 22:50:26 54° E 22:50:26 54° E 23:07:08 10° ENE visible
03 Mar 10.4 01:07:39 57° W 01:16:16 82° N 01:37:50 10° E visible
03 Mar 10.3 03:24:53 11° WNW 03:50:24 87° SSW 04:05:40 10° ESE visible
03 Mar 11.3 21:42:39 30° ENE 21:42:39 30° ENE 21:52:04 10° ENE visible
03 Mar 10.3 23:59:52 87° NNW 23:59:52 87° NNW 00:24:18 10° ENE visible
04 Mar 10.4 02:17:06 29° WNW 02:35:18 85° N 02:53:46 10° E visible
04 Mar 11.1 20:34:52 12° ENE 20:34:52 12° ENE 20:35:54 10° ENE visible
04 Mar 10.7 22:52:05 58° ENE 22:52:05 58° ENE 23:10:00 10° ENE visible
05 Mar 10.4 01:09:18 53° WNW 01:19:13 82° N 01:40:59 10° E visible
05 Mar 10.3 03:27:06 10° WNW 03:53:06 80° SSW 04:08:40 10° ESE visible
05 Mar 10.8 18:48:17 10° S 18:49:55 14° S 18:49:55 14° S visible
05 Mar 11.2 21:44:18 33° ENE 21:44:18 33° ENE 21:54:53 10° ENE visible
06 Mar 10.3 00:01:31 82° NW 00:02:41 84° N 00:27:21 10° E visible
06 Mar 10.4 02:18:44 26° WNW 02:38:10 89° NNE 02:56:52 10° ESE visible
06 Mar 10.7 17:42:23 10° SSE 17:43:04 11° SE 17:43:04 11° SE visible
06 Mar 10.9 19:59:33 10° SSW 20:36:30 14° ENE 20:38:51 10° ENE visible
06 Mar 10.6 22:53:44 62° ENE 22:53:44 62° ENE 23:12:53 10° ENE visible
07 Mar 10.5 01:10:56 49° WNW 01:22:10 83° N 01:44:08 10° E visible
07 Mar 10.3 03:29:48 10° WNW 03:55:38 72° SSW 04:11:30 10° SE visible
07 Mar 10.5 18:49:54 10° SSW 18:53:36 21° S 18:53:36 21° S visible
07 Mar 11.1 21:45:57 36° ENE 21:45:57 36° ENE 21:57:38 10° ENE visible
08 Mar 10.3 00:03:10 78° NW 00:05:36 82° N 00:30:26 10° E visible
08 Mar 10.4 02:20:23 23° WNW 02:40:54 86° SSW 02:59:53 10° ESE visible
08 Mar 10.5 17:42:11 10° SSE 17:46:54 18° SE 17:46:54 18° SE visible
08 Mar 10.7 20:01:59 10° SW 20:38:11 16° ENE 20:41:39 10° ENE visible
08 Mar 10.5 22:55:24 65° ENE 22:55:24 65° ENE 23:15:49 10° E visible
